ATLAS 5 CENTAUR DEB, 43998

Orbit data source: Space-Track

ATLAS 5 CENTAUR DEB, 43998 is space debris in HEO originally from a launch on Wed, 17 Sep 2014 UTC launched from the Air Force Eastern Test Range (AFETR). Debris objects in space refer to the collection of defunct objects orbiting the Earth. Examples of debris include non-operational satellites, rocket bodies, and fragments generated from explosions, collisions, or faulty payload assembly.

Loading next visibility...
Identifier
43998, 2014-055BD
Orbit
HEO
Country
Flag of USUS
Related business
Flag of USUnited Launch Alliance/Lockheed Martin (US)
Manufacturer
Unknown
Mission
Spacecraft
Bus & Motor
Unknown
Mass
Unknown
Launch date (UTC)
2014-09-17 (11 years ago)
Launch vehicle
Unknown
Launch site
Air Force Eastern Test Range (AFETR)
Object type
Payload
Rocket body
Debris
Shape & HBR
Unknown shape, 1.1 m
Radar Cross Section
Medium (>0.1 m² and <1 m²)

Expand to show TLE details & history
Last TLE update: 1 month ago

TLE from 1 month ago
0 ATLAS 5 CENTAUR DEB
1 43998U 14055BD  25252.24203112 -.00000014  00000-0  00000-0 0  9995
2 43998  19.8797 159.6794 5144754 138.6472 274.4986  1.83529850 46166
Epoch: 2025-09-09T05:48Z
TLE epoch observation values (Epoch: 2025-09-09T05:48:31.488Z)
Latitude
0.00006°
Longitude
83.97314°
Altitude
27,425.687 km
Speed
3.072 km/s
True Right ascension
10h 38m 33s
True Declination
0° 00' 00"
Sunlit
Object was in daylight at epoch
Visualization orbit readout
Latitude
Unknown
Longitude
Unknown
Altitude
Unknown
Speed
Unknown
Apparent Right ascension
Unknown
Apparent Declination
Unknown
Sunlit
N/A
Visualization observer readout
Local Sidereal Time
12:40:21
Azimuth
Unknown
Elevation
Unknown
Doppler factor
Unknown
Orbital elements
Apogee altitude
36,301.898 km
Perigee altitude
7,304.625 km
Semi-major axis
28,181.399 km
Eccentricity
0.51448
Inclination
19.8797°
RAAN
159.6794°
Arg. of periapsis
138.6472°
True anomaly
221.30556°
Mean anomaly
274.4986°
Eccentric anomaly
247.30392°
Mean motion
0.45877 °/min
Orbital period
784.7 mins
BSTAR
0
Loading maneuver chart data...
Computing Atmospheric mass density...

Documentation

Showing up to 5 results
|